Weather History for Paris, IL

Change the Weather History Date:

Friday, September 7, 2012

  Actual Average (KHUF) Record (KHUF)
Temperature  
Mean Temperature 72 °F 69 °F  
Max Temperature 81 °F 81 °F 98 °F (1964)
Min Temperature 63 °F 57 °F 41 °F (1988)
Degree Days  
Heating Degree Days 0 1  
Month to date heating degree days 2  
Since 1 July heating degree days 7  
Cooling Degree Days 7 5  
Month to date cooling degree days 38  
Year to date cooling degree days 917  
Growing Degree Days 22 (Base 50)    
Moisture  
Dew Point 65 °F    
Average Humidity 83    
Maximum Humidity 97    
Minimum Humidity 58    
Precipitation  
Precipitation 1.13 in 0.13 in 1.55 in (2012)
Month to date precipitation 0.90  
Year to date precipitation 32.18  
Sea Level Pressure  
Sea Level Pressure 29.83 in    
Wind  
Wind Speed 4 mph (ENE)    
Max Wind Speed 15 mph    
Max Gust Speed 34 mph    
Visibility 9 miles    
Events Rain , Thunderstorm    
T = Trace of Precipitation, MM = Missing Value Source: NWS Daily Summary

Daily Weather History Graph

Daily Weather History Graph

Search for Another Location

Airport:

Trip Planner

Search our weather history database for the weather conditions in past years. The results will help you decide how hot, cold, wet, or windy it might be!

Date:

Astronomy

Sep. 07, 2012 Rise Set
Actual Time 6:24 AM CDT 7:11 PM CDT
Civil Twilight 5:57 AM CDT 7:38 PM CDT
Nautical Twilight 5:25 AM CDT 8:11 PM CDT
Astronomical Twilight 4:51 AM CDT 8:44 PM CDT
Moon 11:08 PM CDT (9/7) 1:15 PM CDT (9/7)
Length of Visible Light 13h 41m
Length of Day
12h 46m
Waning Gibbous, 58% of the Moon is Illuminated
Sep 7
Waning Gibbous
Sep 8
Last Quarter
Sep 15
New
Sep 22
First Quarter
Sep 29
Full

Hourly Weather History & Observations

Time (CDT) Temp. Heat Index Dew Point Humidity Pressure Visibility Wind Dir Wind Speed Gust Speed Precip Events Conditions
12:15 AM 68.5 °F - 66.7 °F 94% 29.92 in 10.0 mi Calm Calm - N/A   Mostly Cloudy
12:35 AM 68.0 °F - 66.2 °F 94% 29.91 in 10.0 mi Calm Calm - N/A   Scattered Clouds
12:55 AM 67.3 °F - 65.7 °F 95% 29.91 in 10.0 mi SE 3.5 mph - N/A   Clear
1:15 AM 67.1 °F - 64.9 °F 93% 29.90 in 10.0 mi Calm Calm - N/A   Clear
1:35 AM 66.2 °F - 64.4 °F 94% 29.90 in 10.0 mi South 4.6 mph - N/A   Clear
1:55 AM 66.0 °F - 64.4 °F 94% 29.89 in 7.0 mi Calm Calm - N/A   Clear
2:15 AM 65.5 °F - 64.4 °F 96% 29.89 in 7.0 mi SW 3.5 mph - N/A   Clear
2:35 AM 66.2 °F - 65.3 °F 97% 29.89 in 7.0 mi Calm Calm - N/A   Clear
2:55 AM 68.4 °F - 66.4 °F 93% 29.89 in 10.0 mi WSW 3.5 mph - N/A   Clear
3:15 AM 68.9 °F - 65.5 °F 89% 29.90 in 10.0 mi SW 6.9 mph - N/A   Clear
3:35 AM 68.4 °F - 65.3 °F 90% 29.89 in 7.0 mi WSW 3.5 mph - N/A   Clear
3:55 AM 67.8 °F - 64.4 °F 89% 29.89 in 10.0 mi Calm Calm - N/A   Clear
4:15 AM 66.0 °F - 63.7 °F 92% 29.88 in 10.0 mi Calm Calm - N/A   Clear
4:35 AM 65.3 °F - 63.1 °F 93% 29.89 in 10.0 mi Calm Calm - N/A   Clear
4:55 AM 64.4 °F - 63.1 °F 96% 29.89 in 10.0 mi Calm Calm - N/A   Clear
5:15 AM 63.1 °F - 61.9 °F 96% 29.89 in 7.0 mi SSW 3.5 mph - N/A   Clear
5:35 AM 63.9 °F - 62.8 °F 96% 29.88 in 7.0 mi Calm Calm - N/A   Clear
5:55 AM 63.5 °F - 62.2 °F 96% 29.89 in 7.0 mi SSW 4.6 mph - N/A   Clear
6:15 AM 65.3 °F - 63.1 °F 93% 29.90 in 10.0 mi Calm Calm - N/A   Clear
6:35 AM 63.5 °F - 61.9 °F 94% 29.90 in 7.0 mi Calm Calm - N/A   Clear
7:35 AM 67.1 °F - 64.2 °F 90% 29.90 in 7.0 mi SE 5.8 mph - N/A   Clear
7:55 AM 70.0 °F - 66.2 °F 88% 29.90 in 10.0 mi South 6.9 mph - N/A   Clear
8:15 AM 72.5 °F - 66.7 °F 82% 29.91 in 7.0 mi South 4.6 mph - N/A   Clear
8:35 AM 74.8 °F - 66.0 °F 74% 29.91 in 10.0 mi South 3.5 mph - N/A   Clear
8:55 AM 76.3 °F - 65.3 °F 69% 29.91 in 10.0 mi South 4.6 mph - N/A   Clear
9:15 AM 76.3 °F - 64.4 °F 67% 29.90 in 10.0 mi South 3.5 mph - N/A   Clear
9:35 AM 76.3 °F - 64.6 °F 67% 29.90 in 10.0 mi SSE 8.1 mph - N/A   Clear
9:55 AM 78.8 °F - 64.8 °F 62% 29.90 in 10.0 mi SSW 6.9 mph - N/A   Clear
10:15 AM 79.5 °F - 63.5 °F 58% 29.90 in 10.0 mi South 6.9 mph - N/A   Mostly Cloudy
10:35 AM 77.7 °F - 64.8 °F 64% 29.94 in 10.0 mi NNW 12.7 mph 19.6 mph N/A   Overcast
10:55 AM 75.6 °F - 66.2 °F 73% 29.93 in 10.0 mi North 4.6 mph 17.3 mph N/A   Mostly Cloudy
11:15 AM 75.2 °F - 64.9 °F 70% 29.91 in 10.0 mi NNE 3.5 mph - N/A   Scattered Clouds
11:35 AM 75.9 °F - 63.9 °F 66% 29.90 in 10.0 mi North 6.9 mph - N/A   Scattered Clouds
11:55 AM 77.4 °F - 63.3 °F 62% 29.90 in 10.0 mi ENE 5.8 mph - N/A   Clear
12:15 PM 75.7 °F - 62.8 °F 64% 29.87 in 10.0 mi ESE 4.6 mph - N/A   Clear
12:35 PM 74.8 °F - 63.5 °F 68% 29.85 in 10.0 mi East 4.6 mph - N/A   Clear
12:55 PM 75.4 °F - 63.3 °F 66% 29.85 in 10.0 mi ESE 3.5 mph - N/A Thunderstorm Thunderstorm
1:15 PM 77.0 °F - 64.4 °F 65% 29.87 in 10.0 mi North 6.9 mph - N/A Thunderstorm Thunderstorm
1:35 PM 77.4 °F - 64.9 °F 65% 29.85 in 10.0 mi NE 8.1 mph - N/A   Clear
1:55 PM 78.6 °F - 64.0 °F 61% 29.84 in 10.0 mi East 6.9 mph - N/A   Clear
2:15 PM 76.1 °F - 65.3 °F 69% 29.82 in 10.0 mi East 5.8 mph - N/A   Clear
2:35 PM 79.3 °F - 65.8 °F 63% 29.79 in 10.0 mi East 9.2 mph - N/A Thunderstorm Thunderstorm
2:55 PM 81.7 °F 84.0 °F 66.6 °F 60% 29.78 in 10.0 mi East 6.9 mph - N/A Thunderstorm Thunderstorm
3:15 PM 75.4 °F - 65.1 °F 70% 29.79 in 7.0 mi ENE 10.4 mph - N/A Thunderstorm Thunderstorm
3:35 PM 77.2 °F - 64.9 °F 66% 29.77 in 7.0 mi East 8.1 mph - N/A Thunderstorm Mostly Cloudy
3:55 PM 80.2 °F 82.3 °F 66.2 °F 62% 29.76 in 10.0 mi ESE 6.9 mph - N/A   Scattered Clouds
4:15 PM 77.9 °F - 66.7 °F 68% 29.75 in 10.0 mi SE 10.4 mph - N/A Thunderstorm Thunderstorm
4:35 PM 77.0 °F - 68.0 °F 74% 29.72 in 10.0 mi ESE 5.8 mph - N/A   Mostly Cloudy
4:55 PM 76.1 °F - 67.8 °F 75% 29.71 in 7.0 mi ESE 5.8 mph - N/A Thunderstorm Scattered Clouds
5:15 PM 74.7 °F - 68.0 °F 80% 29.70 in 10.0 mi Calm Calm - N/A Rain , Thunderstorm Light Thunderstorms and Rain
5:35 PM 73.8 °F - 68.7 °F 84% 29.68 in 7.0 mi SE 5.8 mph - N/A Thunderstorm Scattered Clouds
5:55 PM 73.0 °F - 69.3 °F 88% 29.66 in 10.0 mi ENE 3.5 mph - N/A Rain , Thunderstorm Light Thunderstorms and Rain
6:15 PM 71.8 °F - 69.3 °F 92% 29.70 in 10.0 mi NNW 13.8 mph 21.9 mph N/A Rain , Thunderstorm Light Thunderstorms and Rain
6:35 PM 68.0 °F - 66.2 °F 94% 29.72 in 1.2 mi North 15.0 mph 34.5 mph 0.20 in Rain , Thunderstorm Heavy Thunderstorms and Rain
6:55 PM 66.7 °F - 65.5 °F 96% 29.73 in 3.0 mi North 5.8 mph - 0.48 in Rain , Thunderstorm Heavy Thunderstorms and Rain
7:15 PM 66.7 °F - 65.7 °F 96% 29.74 in 10.0 mi NNE 5.8 mph - 0.17 in Rain , Thunderstorm Thunderstorms and Rain
7:35 PM 67.3 °F - 66.4 °F 97% 29.73 in 10.0 mi North 8.1 mph - 0.32 in Rain , Thunderstorm Thunderstorms and Rain
7:55 PM 67.8 °F - 66.9 °F 97% 29.75 in 10.0 mi North 6.9 mph - 0.42 in Rain , Thunderstorm Thunderstorms and Rain
8:15 PM 67.6 °F - 66.6 °F 96% 29.74 in 10.0 mi NE 6.9 mph - 0.06 in Rain , Thunderstorm Thunderstorms and Rain
8:35 PM 67.5 °F - 66.2 °F 96% 29.75 in 5.0 mi NE 3.5 mph - 0.15 in Rain , Thunderstorm Thunderstorms and Rain
8:55 PM 67.5 °F - 66.2 °F 96% 29.77 in 7.0 mi North 4.6 mph - 0.21 in Rain , Thunderstorm Rain
9:15 PM 67.1 °F - 66.2 °F 97% 29.77 in 10.0 mi NNW 4.6 mph - 0.01 in Rain Light Rain
9:35 PM 67.1 °F - 66.2 °F 97% 29.76 in 10.0 mi NNW 4.6 mph - 0.01 in   Light Drizzle
9:55 PM 67.1 °F - 66.2 °F 97% 29.76 in 10.0 mi NNW 3.5 mph - 0.01 in   Scattered Clouds
10:55 PM 66.7 °F - 65.8 °F 97% 29.76 in 10.0 mi NNW 4.6 mph - 0.01 in Rain Light Rain
11:35 PM 66.7 °F - 65.7 °F 96% 29.79 in 10.0 mi NNW 6.9 mph - N/A   Overcast
11:55 PM 66.6 °F - 65.1 °F 95% 29.79 in 10.0 mi NNW 8.1 mph 16.1 mph N/A   Overcast